Waarnemingen

Advertentie
Mijn weer
Torino/Caselle, Italië (16059): temperatuur & dauwpunt: 18.10.2017 06:00:00 - 24.10.2017 06:00:00 (CEST)Torino/Caselle, Italië (16059): windsnelheid: 18.10.2017 06:00:00 - 24.10.2017 06:00:00 (CEST)Torino/Caselle, Italië (16059): windrichting: 18.10.2017 06:00:00 - 24.10.2017 06:00:00 (CEST)Torino/Caselle, Italië (16059): luchtdruk: 18.10.2017 06:00:00 - 24.10.2017 06:00:00 (CEST)Torino/Caselle, Italië (16059): zicht: 18.10.2017 06:00:00 - 24.10.2017 06:00:00 (CEST)Torino/Caselle, Italië (16059): neerslag: 18.10.2017 06:00:00 - 24.10.2017 06:00:00 (CEST)
Datum & Tijd tt [°C] td [°C] ff [km/u] ff [kn] dd ppp [hPa] vv [km] rr [mm]
24.10.2017 06:00:00 - - - - - - - -
24.10.2017 05:00:00 7,3 -3,1 8 4 WNW 1019,9 10 0,0
24.10.2017 04:00:00 8,0 -3,0 4 2 - - 10 -
24.10.2017 03:00:00 7,0 -3,0 5 3 - - 10 -
24.10.2017 02:00:00 9,6 -3,3 9 5 WNW 1019,5 10 -
24.10.2017 01:00:00 10,0 -3,0 11 6 W - 10 -
24.10.2017 00:00:00 10,0 -3,0 11 6 WNW - 10 -
23.10.2017 23:00:00 10,3 -3,1 8 4 N 1018,5 10 0,0
23.10.2017 22:00:00 12,0 -3,0 5 3 WNW - 10 -
23.10.2017 21:00:00 14,0 -3,0 8 4 WNW - 10 -
23.10.2017 20:00:00 15,2 -3,9 9 5 Z 1016,6 10 -
23.10.2017 19:00:00 19,0 -5,0 11 6 ZZO - 10 -
23.10.2017 18:00:00 21,0 -5,0 15 8 ZO - 10 -
23.10.2017 17:00:00 22,6 -7,5 11 6 OZO 1014,6 10 0,0
23.10.2017 16:00:00 22,0 -7,0 11 6 OZO - 10 -
23.10.2017 15:00:00 23,0 -10,0 4 2 - - 10 -
23.10.2017 14:00:00 22,6 -9,4 21 11 WNW 1014,1 10 -
23.10.2017 13:00:00 20,0 -5,0 5 3 - - 10 -
23.10.2017 12:00:00 19,0 -4,0 5 3 OZO - 10 -
23.10.2017 11:00:00 16,5 -3,8 11 6 ZO 1015,1 10 0,0
23.10.2017 10:00:00 15,0 -5,0 5 3 ZZO - 10 -
23.10.2017 09:00:00 12,0 -7,0 9 5 - - 10 -
23.10.2017 08:00:00 12,9 -8,4 5 3 ONO 1014,5 10 -
23.10.2017 07:00:00 11,0 -8,0 5 3 - - 10 -
23.10.2017 06:00:00 13,0 -8,0 5 3 - - 10 -
23.10.2017 05:00:00 13,8 -8,1 15 8 ZW 1014,9 10 0,0
23.10.2017 04:00:00 15,0 -9,0 15 8 W - 10 -
23.10.2017 03:00:00 12,0 -8,0 8 4 OZO - 10 -
23.10.2017 02:00:00 12,4 -8,8 5 3 OZO 1014,4 10 -
23.10.2017 01:00:00 16,0 -10,0 22 12 NW - 10 -
23.10.2017 00:00:00 15,0 -8,0 15 8 WZW - 10 -
22.10.2017 23:00:00 16,1 -8,3 15 8 NNW 1013,4 10 0,0
22.10.2017 22:00:00 16,0 -9,0 4 2 - - 10 -
22.10.2017 21:00:00 17,0 -11,0 24 13 W - 10 -
22.10.2017 20:00:00 16,8 -9,5 28 15 W 1012,3 10 -
22.10.2017 19:00:00 17,0 -8,0 34 18 W - 10 -
22.10.2017 18:00:00 18,0 -9,0 37 20 WNW - 10 -
22.10.2017 17:00:00 19,7 -9,2 34 18 WNW 1010,6 10 0,0
22.10.2017 16:00:00 21,0 -9,0 37 20 WNW - 10 -
22.10.2017 15:00:00 21,0 -2,0 18 10 W - 6 -
22.10.2017 14:00:00 17,3 9,7 4 2 - 1011,6 2,0 -
22.10.2017 13:00:00 13,0 11,0 4 2 - - 1,2 -
22.10.2017 12:00:00 12,0 11,0 4 2 - - 0,6 -
22.10.2017 11:00:00 11,0 10,7 5 3 ZZW 1014,6 0,2 0,0
22.10.2017 10:00:00 10,0 10,0 2 1 - - 0,6 -
22.10.2017 09:00:00 9,0 7,0 5 3 NW - 1,6 -
22.10.2017 08:00:00 8,6 7,2 5 3 NNW 1015,0 2,0 -
22.10.2017 07:00:00 9,0 8,0 5 3 NNW - 1,8 -
22.10.2017 06:00:00 9,0 8,0 4 2 - - 2,0 -
22.10.2017 05:00:00 9,8 8,3 5 3 WNW 1015,8 2,0 0,0
22.10.2017 04:00:00 10,0 9,0 8 4 WNW - 1,8 -
22.10.2017 03:00:00 11,0 9,0 8 4 W - 1,6 -
22.10.2017 02:00:00 11,1 9,8 5 3 WZW 1017,9 1,5 -
22.10.2017 01:00:00 12,0 11,0 5 3 NNW - 1,8 -
22.10.2017 00:00:00 12,0 11,0 5 3 NNW - 2,0 -
21.10.2017 23:00:00 12,5 10,9 8 4 NW 1018,9 2,0 0,0
21.10.2017 22:00:00 12,0 11,0 2 1 - - 1,5 -
21.10.2017 21:00:00 12,0 10,0 2 1 - - 1,8 -
21.10.2017 20:00:00 12,9 10,7 4 2 N 1019,4 2,4 -
21.10.2017 19:00:00 13,0 11,0 8 4 O - 2,0 -
21.10.2017 18:00:00 16,0 11,0 5 3 O - 2,2 -
21.10.2017 17:00:00 15,7 11,2 4 2 - 1019,4 2,5 0,0
21.10.2017 16:00:00 16,0 11,0 4 2 - - 2,5 -
21.10.2017 15:00:00 15,0 11,0 5 3 ZZO - 2,5 -
21.10.2017 14:00:00 14,7 10,8 9 5 O 1020,8 2,7 -
21.10.2017 13:00:00 13,0 11,0 8 4 ZO - 2,5 -
21.10.2017 12:00:00 12,0 11,0 2 1 - - 1,6 -
21.10.2017 11:00:00 11,2 10,9 5 3 NW 1022,2 1,5 0,0
21.10.2017 10:00:00 11,0 10,0 8 4 NNW - 0,8 -
21.10.2017 09:00:00 10,0 10,0 4 2 NNO - 0,4 -
21.10.2017 08:00:00 10,4 10,2 4 2 ONO 1021,4 0,2 -
21.10.2017 07:00:00 10,0 10,0 4 2 NNO - 0,2 -
21.10.2017 06:00:00 11,0 10,0 2 1 - - 0,2 -
21.10.2017 05:00:00 10,6 10,4 4 2 - 1021,3 0,1 0,0
21.10.2017 04:00:00 11,0 10,0 4 2 - - - -
21.10.2017 03:00:00 11,0 10,0 5 3 NO - - -
21.10.2017 02:00:00 10,4 10,2 5 3 ONO 1022,0 - -
21.10.2017 01:00:00 10,0 10,0 5 3 NO - - -
21.10.2017 00:00:00 10,0 10,0 5 3 ONO - - -
20.10.2017 23:00:00 10,3 9,9 8 4 ONO 1021,7 0,2 0,0
20.10.2017 22:00:00 11,0 10,0 5 3 ONO - 1,4 -
20.10.2017 21:00:00 12,0 10,0 5 3 N - 2,0 -
20.10.2017 20:00:00 11,9 10,6 5 3 ONO 1020,6 2,2 -
20.10.2017 19:00:00 14,0 11,0 8 4 ONO - 2,8 -
20.10.2017 18:00:00 16,0 11,0 8 4 O - 3,0 -
20.10.2017 17:00:00 17,2 11,3 4 2 - 1019,5 3,0 0,0
20.10.2017 16:00:00 17,0 11,0 5 3 - - 2,8 -
20.10.2017 15:00:00 15,0 11,0 5 3 - - 2,0 -
20.10.2017 14:00:00 13,0 11,1 5 3 O 1020,3 1,0 -
20.10.2017 13:00:00 11,0 11,0 4 2 - - 0,8 -
20.10.2017 12:00:00 11,0 11,0 4 2 - - 0,8 -
20.10.2017 11:00:00 9,8 9,6 2 1 - 1021,2 0,3 0,0
20.10.2017 10:00:00 9,0 9,0 2 1 - - - -
20.10.2017 09:00:00 9,0 9,0 4 2 - - - -
20.10.2017 08:00:00 8,4 8,2 2 1 - 1019,9 - -
20.10.2017 07:00:00 9,0 9,0 4 2 - - 0,1 -
20.10.2017 06:00:00 9,0 9,0 4 2 - - 0,1 -
20.10.2017 05:00:00 10,0 9,0 5 3 O - 0,1 -
20.10.2017 04:00:00 11,0 9,0 4 2 - - 3,0 -
20.10.2017 03:00:00 11,0 9,0 4 2 NW - 3,0 -
20.10.2017 02:00:00 10,4 7,6 5 3 W 1019,8 3,0 -
20.10.2017 01:00:00 11,0 8,0 2 1 - - 3,5 -
20.10.2017 00:00:00 13,0 9,0 8 4 NNW - 4,0 -
19.10.2017 23:00:00 12,1 9,1 9 5 N 1019,5 4,0 0,0
19.10.2017 22:00:00 12,0 8,0 8 4 NNW - 4,0 -
19.10.2017 21:00:00 14,0 9,0 4 2 - - 4,0 -
19.10.2017 20:00:00 15,1 9,7 5 3 NNO 1018,2 3,7 -
19.10.2017 19:00:00 17,0 10,0 5 3 NO - 4,0 -
19.10.2017 18:00:00 19,0 10,0 5 3 ONO - 4,2 -
19.10.2017 17:00:00 19,2 9,4 4 2 - 1017,6 4,5 0,0
19.10.2017 16:00:00 19,0 10,0 4 2 - - 5 -
19.10.2017 15:00:00 19,0 10,0 5 3 ZZO - 5 -
19.10.2017 14:00:00 18,6 8,9 8 4 O 1018,7 4,5 -
19.10.2017 13:00:00 18,0 8,0 11 6 O - 4,5 -
19.10.2017 12:00:00 17,0 9,0 8 4 O - 5 -
19.10.2017 11:00:00 15,4 8,0 2 1 - 1019,5 4,5 0,0
19.10.2017 10:00:00 13,0 8,0 2 1 - - 5 -
19.10.2017 09:00:00 11,0 7,0 5 3 WNW - 5 -
19.10.2017 08:00:00 9,9 6,5 4 2 - 1018,9 5 -
19.10.2017 07:00:00 9,0 6,0 5 3 NNW - 6 -
19.10.2017 06:00:00 10,0 7,0 4 2 - - 5 -
19.10.2017 05:00:00 10,8 7,3 4 2 NO 1018,7 5 0,0
19.10.2017 04:00:00 9,0 7,0 4 2 - - 6 -
19.10.2017 03:00:00 11,0 7,0 4 2 - - 6 -
19.10.2017 02:00:00 11,8 7,5 2 1 - 1019,3 6 -
19.10.2017 01:00:00 11,0 7,0 5 3 - - 6 -
19.10.2017 00:00:00 12,0 7,0 5 3 NNW - 6 -
18.10.2017 23:00:00 14,4 7,7 9 5 NNW 1019,4 6 0,0
18.10.2017 22:00:00 15,0 8,0 11 6 WNW - 6 -
18.10.2017 21:00:00 15,0 8,0 9 5 WNW - 6 -
18.10.2017 20:00:00 16,0 7,1 8 4 N 1018,4 6 -
18.10.2017 19:00:00 18,0 6,0 5 3 ONO - 7 -
18.10.2017 18:00:00 19,0 7,0 8 4 ONO - 7 -
18.10.2017 17:00:00 20,6 6,9 5 3 NO 1017,7 7 0,0
18.10.2017 16:00:00 21,0 7,0 5 3 Z - 7 -
18.10.2017 15:00:00 21,0 8,0 4 2 - - 7 -
18.10.2017 14:00:00 20,1 8,3 8 4 OZO 1019,2 7 -
18.10.2017 13:00:00 18,0 9,0 5 3 O - 8 -
18.10.2017 12:00:00 17,0 8,0 4 2 - - 8 -
18.10.2017 11:00:00 16,1 8,7 4 2 - 1020,9 8 0,0
18.10.2017 10:00:00 13,0 7,0 2 1 - - 8 -
18.10.2017 09:00:00 10,0 6,0 4 2 - - 8 -
18.10.2017 08:00:00 9,8 5,7 4 2 - 1020,7 8 -
18.10.2017 07:00:00 10,0 6,0 5 3 WNW - 10 -
18.10.2017 06:00:00 10,0 6,0 4 2 WNW - 10 -

tt = temperatuur
td = dauwpunt
ff = windsnelheid
dd = windrichting
ppp = luchtdruk
vv = zicht
rr = neerslag

Weerstations in de omgeving